User: anonymous   Login
Location: Kapla
(46.2483°N, 15.0094°E)
Time: 17:56:12
(UTC+00:00)
Language:

Nadezhda 3 Rocket - Orbit

View from above orbital plane
View from above orbital plane
View from above satellite
View from above satellite

Ground track
Ground track

The orbit data is extracted from the following two-line orbital elements,

1 21153U 91019B   21129.25344751  .00000016  00000-0  96660-6 0  9998
2 21153  82.9278 224.6234 0030314 135.6694 281.2595 13.75988673513950
Epoch (UTC): 09 May 2021 06:04:57
Eccentricity: 0.0030314
inclination: 82.9278°
perigee height: 956 km
apogee height: 1000 km
right ascension of ascending node: 224.6234°
argument of perigee: 135.6694°
revolutions per day: 13.75988673
mean anomaly at epoch: 281.2595°
orbit number at epoch: 51395

The dashed part of the orbit path shows where the satellite is in the earth's shadow,  

DLR